This demonstration page uses our WeatherBlox Daily Observations layout. Learn more.

Left ArrowRight Arrow

44.8408, -93.29828

Hourly Observations for September 2, 2017

Temp ( °F °C ) Dew Point ( °F °C ) Humidity (%) Winds ( mph kmh ) Pressure ( in mb ) Visibility ( mi km ) Precip ( " mm )
12:53 am 00:53 Cloudy with Haze 66 18.9 57 13.9 73 73 SSW 8 13 30.00 1016 6 10 0.00 0.00
1:53 am 01:53 Cloudy 65 18.3 57 13.9 76 76 SSW 10 17 29.99 1016 7 11 0.00 0.00
2:53 am 02:53 Cloudy 65 18.3 57 13.9 76 76 SSW 9 15 29.98 1015 7 11 0.00 0.00
3:53 am 03:53 Cloudy 65 18.3 57 13.9 76 76 SW 7 11 29.96 1015 7 11 0.00 0.00
4:53 am 04:53 Cloudy 65 18.3 56 13.3 73 73 SSW 9 15 29.94 1014 8 13 0.00 0.03
5:53 am 05:53 Cloudy 65 18.3 55 12.8 70 70 SW 8 13 29.95 1014 9 14 0.00 0.00
6:18 am 06:18 Cloudy 65 18.3 55 12.8 70 70 SW 8 13 29.94 1014 9 14 0.00 0.00
6:53 am 06:53 Cloudy 65 18.3 55 12.8 70 70 SW 9 15 29.94 1014 9 14 0.00 0.00
7:53 am 07:53 Cloudy 65 18.3 56 13.3 73 73 WSW 8 13 29.95 1014 9 14 0.00 0.00
8:53 am 08:53 Cloudy 65 18.3 57 13.9 76 76 SW 9 15 29.94 1014 9 14 0.00 0.00
9:53 am 09:53 Cloudy 66 18.9 59 15 78 78 WSW 10 17 29.94 1014 8 13 0.00 0.00
10:37 am 10:37 Cloudy 67 19.4 60 15.6 79 79 WSW 10 17 29.94 1014 7 11 0.00 0.00
10:53 am 10:53 Cloudy 68 20 61 16.1 78 78 WSW 8 13 29.93 1014 7 11 0.00 0.00
11:23 am 11:23 Partly Cloudy 70 21.1 62 16.7 76 76 WSW 9 15 29.94 1014 7 11 0.00 0.00
11:53 am 11:53 Partly Cloudy 72 22.2 63 17.2 73 73 W 8 13 29.93 1014 7 11 0.00 0.00
12:53 pm 12:53 Mostly Sunny 76 24.4 63 17.2 64 64 W 8 13 29.92 1013 9 14 0.00 0.00
1:53 pm 13:53 Mostly Cloudy 79 26.1 60 15.6 52 52 NW 15 24 29.91 1013 10 16 0.00 0.00
2:53 pm 14:53 Mostly Sunny 81 27.2 57 13.9 44 44 NW 17 28 29.89 1012 10 16 0.00 0.00
3:53 pm 15:53 Mostly Sunny 81 27.2 53 11.7 38 38 WNW 21 33 29.89 1012 10 16 0.00 0.00
4:53 pm 16:53 Mostly Sunny 80 26.7 52 11.1 38 38 WNW 15 24 29.89 1012 10 16 0.00 0.00
5:53 pm 17:53 Sunny 79 26.1 51 10.6 38 38 NW 15 24 29.90 1013 10 16 0.00 0.00
6:53 pm 18:53 Sunny 76 24.4 52 11.1 43 43 WNW 10 17 29.91 1013 10 16 0.00 0.00
7:53 pm 19:53 Clear 73 22.8 54 12.2 51 51 W 8 13 29.92 1013 10 16 0.00 0.00
8:53 pm 20:53 Clear 71 21.7 54 12.2 55 55 WNW 8 13 29.94 1014 10 16 0.00 0.00
9:53 pm 21:53 Clear 69 20.6 55 12.8 61 61 W 7 11 29.96 1014 10 16 0.00 0.00
10:53 pm 22:53 Clear 68 20 55 12.8 63 63 W 6 9 29.96 1015 10 16 0.00 0.00
11:53 pm 23:53 Clear 66 18.9 55 12.8 68 68 S 3 6 29.96 1014 10 16 0.00 0.00

Powered by AerisWeather